Flag for India Weather past 2 weeks in Tiruvarur, Tamil Nadu, India

Now
88 °F

Passing clouds.


Feels Like: 93 °F
Forecast: 80 / 94 °F
Wind: 14 mph from Northwest

Location: Tiruchchirapalli

Current Time: Jul 31, 2015 at 9:39:39 AM

Latest Report: Jul 31, 2015 at 9:10 AM


Visibility: 4 mi

Pressure: 29.80 "Hg

Humidity: 55%

Dew point: 70 °F

Location of TiruvarurLocation

Historic Weather in Tiruvarur — Graph

°F

Tiruvarur temperature yesterday

Maximum temperature yesterday: 102 °F (at 3:10 PM)
Minimum temperature yesterday: 81 °F (at 5:10 AM)
Average temperature yesterday: 90 °F

Past Weeks' High & Low Weather Summary

 TemperatureHumidityPressure
High104 °F (Jul 29, 3:10 PM)94% (Jul 23, 9:40 PM)29.86 "Hg (Jul 23, 9:40 PM)
Low77 °F (Jul 23, 9:40 PM)28% (Jul 29, 3:10 PM)29.53 "Hg (Jul 16, 4:40 PM)
Average89 °F55%29.72 "Hg
* Reported Jul 16 7:40 AM — Jul 31 8:10 AM, Tiruvarur, Weather by CustomWeather, © 2015

Note: Actual official high and low records may vary slightly from our data, if they occured in-between our weather recording intervals... More about our weather records

Advertising

Tiruvarur weather history for previous 24 hours

 ConditionsComfort  
Time TempWeatherWind HumidityBarometerVisibility
8:10 AM
Fri, Jul 31
82 °FPassing clouds.12 mph66%29.80 "Hg4 mi
7:40 AM82 °FPassing clouds.9 mph66%29.80 "Hg4 mi
7:10 AM81 °FPassing clouds.7 mph70%29.80 "Hg4 mi
6:40 AM81 °FPassing clouds.6 mph70%29.77 "Hg4 mi
6:10 AM81 °FPassing clouds.6 mph70%29.77 "Hg4 mi
5:40 AM81 °FPassing clouds.7 mph70%29.77 "Hg4 mi
5:10 AM82 °FPassing clouds.9 mph66%29.77 "Hg4 mi
4:40 AM82 °FPassing clouds.9 mph62%29.74 "Hg4 mi
4:10 AM82 °FPassing clouds.12 mph62%29.74 "Hg4 mi
3:10 AM82 °FPassing clouds.9 mph62%29.74 "Hg4 mi
2:40 AM82 °FPassing clouds.9 mph62%29.74 "Hg4 mi
2:10 AM84 °FPassing clouds.9 mph66%29.77 "Hg4 mi
1:40 AM84 °FPassing clouds.5 mph70%29.77 "Hg4 mi
1:10 AM84 °FPassing clouds.5 mph70%29.77 "Hg4 mi
12:40 AM84 °FPassing clouds.5 mph70%29.77 "Hg4 mi
11:40 PM
Thu, Jul 30
84 °FPassing clouds.5 mph70%29.80 "Hg4 mi
11:10 PM86 °FPassing clouds.5 mph70%29.80 "Hg4 mi
10:40 PM86 °FPassing clouds.5 mph70%29.80 "Hg4 mi
9:40 PM88 °FPassing clouds.6 mph66%29.80 "Hg4 mi
9:10 PM88 °FPassing clouds.7 mph66%29.77 "Hg4 mi
8:40 PM88 °FPassing clouds.7 mph66%29.77 "Hg4 mi
8:10 PM91 °FPassing clouds.9 mph49%29.77 "Hg4 mi
7:40 PM91 °FPassing clouds.9 mph46%29.74 "Hg4 mi
7:10 PM93 °FPassing clouds.3 mph44%29.74 "Hg4 mi
6:10 PM97 °FPassing clouds.7 mph37%29.71 "Hg4 mi
5:40 PM99 °FPassing clouds.9 mph33%29.71 "Hg5 mi
5:10 PM99 °FPassing clouds.9 mph35%29.71 "Hg5 mi
4:40 PM100 °FPassing clouds.9 mph35%29.71 "Hg5 mi
4:10 PM102 °FPassing clouds.9 mph31%29.71 "Hg5 mi
3:40 PM102 °FPassing clouds.7 mph31%29.71 "Hg5 mi
3:10 PM102 °FPassing clouds.12 mph33%29.71 "Hg5 mi
2:10 PM100 °FPassing clouds.9 mph35%29.74 "Hg5 mi
1:40 PM100 °FPassing clouds.9 mph35%29.74 "Hg5 mi
1:10 PM99 °FPassing clouds.9 mph37%29.77 "Hg5 mi
12:40 PM99 °FPassing clouds.10 mph37%29.77 "Hg5 mi
12:10 PM97 °FPassing clouds.12 mph39%29.80 "Hg4 mi
11:40 AM95 °FPassing clouds.12 mph41%29.80 "Hg4 mi
11:10 AM93 °FPassing clouds.10 mph44%29.80 "Hg4 mi
10:40 AM91 °FPassing clouds.12 mph49%29.83 "Hg4 mi
10:10 AM90 °FPassing clouds.10 mph52%29.83 "Hg4 mi
9:40 AM88 °FHaze.10 mph55%29.83 "Hg3 mi
9:10 AM86 °FScattered clouds.9 mph62%29.83 "Hg3 mi
Weather by CustomWeather, © 2015

See weather overviewHow to use our weather pages